User: anonymous   Login
Location: Marsån
(66.4167°N, 22.2833°E)
Time: 01:20:55
(UTC+00:00)
Language:

Cosmos 1340 Rocket - Orbit

View from above orbital plane
View from above orbital plane
View from above satellite
View from above satellite

Ground track
Ground track

The orbit data is extracted from the following two-line orbital elements,

1 13068U 82013B   24147.92797608  .00003548  00000-0  19474-3 0  9996
2 13068  81.1779 200.1541 0025899 204.8161 155.1822 15.13605369305462
Epoch (UTC): 26 May 2024 22:16:17
Eccentricity: 0.0025899
inclination: 81.1779°
perigee height: 507 km
apogee height: 543 km
right ascension of ascending node: 200.1541°
argument of perigee: 204.8161°
revolutions per day: 15.13605369
mean anomaly at epoch: 155.1822°
orbit number at epoch: 30546

The dashed part of the orbit path shows where the satellite is in the earth's shadow,  

DLR